{"data":{"norad_id":59283,"intl_designator":"2024-052D","name":"YUNHAI-2 02D","alt_names":[],"object_type":"PAYLOAD","status":"ACTIVE","operator":null,"country":"PRC","launch_date":"2024-03-21","launch_site_code":"JSC","launch_vehicle":null,"mission":null,"orbit_class":"UNKNOWN","rcs_meters":null,"size_class":null,"mass_kg":null,"dimensions":null,"purposes":[],"wikipedia_slug":null,"has_3d_model":false,"image_url":null,"decayed_at":null,"tle_current":{"epoch":"2026-05-25T01:51:33.463296Z","epoch_age_seconds":62200,"freshness":"FRESH","line1":"1 59283U 24052D   26145.07747064  .00000011  00000+0  69147-4 0  9995","line2":"2 59283  50.0087   0.2965 0004644 139.4091 220.7171 14.27986882115097","mean_motion":14.27986882,"eccentricity":0.0004644,"inclination_deg":50.0087,"raan_deg":0.2965,"arg_perigee_deg":139.4091,"mean_anomaly_deg":220.7171,"bstar":6.9147e-5,"rev_number":11509,"period_min":100.84126248997,"perigee_km":795.13495447099,"apogee_km":801.80058498111,"semimajor_km":7176.604769726,"source":"CELESTRAK","updated_at":"2026-05-25T13:38:01.313154Z"}}}